Avian Flight Center Webcam (1 minute updates)

Looking East from Avian at mid-field (Taxiway E) towards Runway 20-2 (Click for full size image). Image will update automatically every minute.

Bremerton Airport Live Webcam

KPWT 011755Z AUTO 04005KT 10SM CLR 25/12 A3004 RMK AO1 10250 20090 57007

Time-lapse movie of yesterday's webcam images

If you are unable to view the movie, download and install the DivX Codec here